Temp
22 22 23 27 30 31 29 28 29 28 28 27 28 29 28 27 27 27 24 22 22 22 21 20 19 20 20 20 20 20 20 20 19 19 19 18 18 17 18 18 18 19 19 19 18 17 16 17 17
22 23 25 30 30 30 29 29 29 29 27 28 27 27 28 26 26 25 24 22 22 21 21 20 19 19 19 19 19 19 19 19 18 18 18 18 17 17 18 18 18 18 17 16 16 16 16 17 17
23 24 30 31 31 30 29 29 28 27 27 28 28 28 27 26 26 25 23 21 21 21 21 19 19 19 19 19 19 19 18 18 18 18 18 18 17 18 18 18 18 19 18 18 17 17 17 17 17
26 29 30 31 29 28 29 29 29 28 27 28 29 27 26 25 25 24 22 21 21 21 21 20 20 20 20 19 19 19 19 18 18 18 17 17 17 17 17 18 18 18 18 18 18 17 17 17 17
27 30 30 29 29 28 29 29 29 28 28 28 28 26 26 24 23 22 22 21 22 21 21 20 20 19 19 20 19 19 19 18 18 18 18 18 18 18 18 18 17 17 17 17 17 16 16 17 17
30 31 30 29 27 27 28 28 28 28 28 27 27 27 26 23 23 22 21 22 22 21 20 20 19 19 19 19 19 19 19 19 18 18 18 18 18 18 17 17 17 17 16 16 16 16 16 16 16
30 31 30 29 27 27 28 28 28 28 28 27 27 27 24 24 23 22 22 22 21 21 21 20 20 19 19 19 19 19 18 18 18 18 18 18 17 17 16 16 16 15 15 15 15 15 15 16 16
29 30 28 28 28 27 28 28 28 28 27 27 28 27 25 25 22 22 22 22 22 21 21 20 19 20 19 19 19 19 18 18 18 18 17 17 17 16 16 16 15 16 16 16 16 15 15 15 15
27 29 28 28 28 28 28 28 28 27 27 26 27 28 27 24 22 22 21 22 22 21 20 20 20 20 19 20 19 19 18 18 18 18 18 17 18 17 17 16 16 16 16 16 16 15 15 16 15
30 30 28 28 29 29 28 29 28 27 27 27 27 25 25 23 22 23 23 23 22 22 21 20 20 20 19 19 19 18 18 19 18 18 17 18 17 17 16 16 16 16 16 16 16 15 15 16 17
29 29 28 27 28 29 29 28 28 28 28 29 28 27 26 24 24 24 25 25 24 23 22 21 19 19 19 20 20 20 20 19 19 17 17 17 17 17 17 17 17 16 16 16 16 16 16 15 15
27 27 28 27 27 28 28 28 28 28 29 28 29 29 27 26 26 25 25 25 25 24 23 21 20 19 19 20 20 20 19 19 19 19 17 17 18 18 17 17 17 17 16 16 16 16 15 14 15
28 28 28 27 27 27 27 28 27 28 29 28 28 27 27 27 26 25 25 25 25 24 23 22 20 19 20 19 19 19 19 19 18 18 18 17 17 18 17 17 17 17 16 16 16 16 15 15 15
27 27 27 27 27 26 26 27 27 28 28 28 27 28 28 28 27 26 25 25 24 24 23 22 21 20 20 19 19 19 19 19 19 18 18 17 17 17 17 17 17 17 17 16 16 16 15 15 15
26 27 27 26 26 26 26 28 28 28 27 27 27 28 28 28 27 26 26 25 25 24 23 22 21 20 20 19 19 19 19 18 19 18 18 17 17 17 17 17 17 17 17 16 16 15 15 15 15
28 28 28 26 27 26 28 28 28 27 27 28 27 27 27 28 27 26 26 25 24 24 23 22 21 21 20 20 19 19 19 18 19 18 18 17 16 16 16 17 17 17 16 16 16 16 16 16 15
27 28 26 26 25 26 27 28 28 27 25 27 28 28 27 27 27 25 24 23 24 23 22 22 21 21 21 19 19 19 18 19 19 18 18 17 17 16 16 16 17 16 16 16 16 16 16 16 16
26 26 27 26 26 26 26 27 27 26 25 26 27 27 27 27 26 24 23 23 23 22 22 22 22 21 19 19 18 19 18 18 18 18 17 16 16 15 15 16 16 15 15 16 16 16 16 16 15
25 25 25 26 24 24 25 26 26 26 26 26 26 26 25 25 24 23 22 21 21 21 21 21 20 17 18 19 19 19 19 18 18 17 15 15 15 15 14 15 15 15 15 15 15 15 15 15 15
24 25 25 24 23 23 25 26 25 25 24 25 26 25 25 25 25 23 22 21 21 20 20 19 18 17 17 18 17 16 16 17 16 16 15 15 14 14 14 14 14 14 14 14 14 14 14 15 15
24 24 23 23 24 24 25 26 25 25 25 25 25 25 25 25 24 23 22 20 19 18 18 18 17 16 16 16 17 17 17 17 17 16 15 14 13 13 13 13 13 12 13 13 14 14 14 14 15
24 22 22 22 23 26 24 26 24 25 24 24 24 24 24 24 23 22 21 20 18 17 17 16 16 16 15 14 15 15 15 15 14 14 14 13 13 13 12 12 12 12 12 12 12 13 13 13 14
22 21 21 22 24 24 25 26 24 25 24 23 23 23 22 22 21 21 19 18 17 16 16 15 16 15 15 14 14 14 14 14 14 13 13 13 13 12 12 11 10 10 11 11 10 10 10 11 12
22 21 22 22 23 23 23 23 24 24 22 23 22 21 21 21 21 19 18 18 17 16 15 15 16 15 14 14 13 12 12 12 13 13 12 12 12 12 11 10 9 9 9 9 9 8 8 8 8
24 23 23 22 22 23 21 23 22 22 22 22 21 21 20 20 20 20 19 19 17 16 15 15 15 15 14 13 13 12 12 12 12 12 11 10 11 10 10 8 8 9 8 8 8 7 7 5 4
21 22 21 20 21 22 22 22 23 21 21 21 20 20 20 20 19 19 19 18 17 16 15 15 15 15 14 13 13 13 12 11 11 10 9 9 9 8 7 7 7 7 7 7 7 6 5 5 5
22 21 20 18 13 18 22 22 21 21 21 21 20 20 20 20 20 19 19 18 16 15 15 14 14 15 14 13 12 11 10 10 9 8 8 8 7 7 7 6 7 6 6 5 5 4 3 3 3
22 20 20 20 18 18 22 22 23 21 21 20 20 20 20 20 20 20 19 18 16 15 14 14 13 13 12 12 11 10 9 9 7 7 7 6 6 6 6 6 6 5 4 3 3 2 2 2 2
21 20 19 20 19 18 18 21 22 21 21 20 20 20 20 19 19 19 18 17 16 15 14 13 13 12 11 11 10 9 8 7 7 6 6 5 5 5 6 5 5 4 2 1 1 1 2 4 4
20 20 20 18 18 18 17 19 21 21 20 20 20 20 19 18 19 18 17 16 15 14 13 13 12 11 9 9 8 8 7 7 6 6 5 5 4 4 4 3 2 2 2 2 2 3 3 4 4
Height
791 791 791 787 792 780 802 806 793 803 802 801 800 799 801 804 807 815 821 824 826 828 830 833 833 833 835 836 837 838 839 840 840 840 841 842 839 841 841 842 840 839 839 839 838 837 837 837 836
791 791 791 781 787 798 807 797 800 798 802 801 802 804 803 814 810 817 821 825 826 828 832 833 833 834 836 837 839 840 840 841 841 842 843 843 840 842 842 842 839 839 840 838 838 837 836 835 835
791 791 781 779 782 798 806 795 801 804 804 801 804 804 806 813 814 816 821 824 828 831 832 835 836 837 837 838 838 841 842 842 842 843 843 842 841 841 842 840 840 839 838 837 836 836 835 835 833
790 787 780 783 800 803 796 796 798 804 803 802 801 811 811 816 817 820 826 830 832 834 835 834 836 838 839 840 838 839 842 842 842 844 843 843 842 841 841 842 840 840 838 837 837 836 835 834 832
788 779 784 793 799 803 794 795 798 802 802 804 804 813 815 819 822 824 827 831 834 836 838 838 839 840 842 841 842 840 841 842 843 843 842 841 841 841 842 841 840 839 839 839 838 836 835 833 832
783 775 790 800 807 806 802 800 802 804 804 808 808 810 815 824 824 828 829 832 834 836 836 838 838 839 842 841 842 841 841 842 843 842 841 841 841 842 842 841 840 839 839 838 837 836 835 834 832
782 779 792 798 812 810 807 802 804 804 807 810 808 814 820 823 825 829 831 834 836 838 838 840 840 842 843 842 843 842 843 844 843 842 842 842 843 842 842 841 841 841 840 839 838 837 835 833 831
785 785 800 803 809 812 807 807 803 804 809 810 807 813 821 819 825 829 831 835 836 838 841 841 842 840 846 846 844 844 843 843 842 842 843 843 843 843 842 842 841 840 839 838 837 836 834 833 832
788 796 804 808 805 808 806 806 806 809 810 812 810 808 812 820 827 832 833 836 838 839 840 841 842 842 845 846 846 845 844 843 843 844 843 844 845 844 844 842 841 840 839 837 836 835 834 832 830
784 789 802 800 799 802 804 802 807 810 811 810 811 815 817 822 825 828 828 832 835 837 840 840 841 842 845 846 846 846 846 845 845 846 845 845 844 844 843 842 840 839 838 837 835 834 833 832 832
790 799 801 804 801 797 802 805 804 805 811 803 805 808 816 820 824 825 826 829 833 836 837 840 841 843 845 846 845 845 846 845 846 846 845 845 844 844 844 843 843 841 839 838 837 835 834 832 831
803 802 798 803 804 803 803 801 807 802 801 802 803 805 813 818 818 821 823 827 831 835 836 839 841 844 845 845 845 845 845 846 846 846 846 846 845 844 843 843 841 840 839 837 836 834 832 830 829
799 800 797 805 805 805 806 803 806 803 799 802 806 808 809 814 816 819 821 824 829 832 835 838 840 843 844 844 844 845 845 845 845 846 845 845 844 843 842 841 840 838 837 836 835 833 832 830 828
801 800 803 804 806 808 808 804 803 802 800 802 806 805 806 810 812 816 819 823 829 831 833 836 839 841 842 843 844 844 844 844 845 845 845 844 844 843 841 840 838 836 835 833 832 831 830 828 826
803 806 801 806 806 809 806 805 803 801 802 802 803 802 804 806 810 813 818 825 828 829 831 833 838 839 841 842 843 843 844 845 845 844 844 843 842 841 840 838 837 835 833 831 829 828 826 824 822
800 800 807 809 805 806 800 803 798 801 802 798 801 801 802 804 809 814 819 824 825 827 829 832 835 838 840 842 843 843 844 843 843 842 841 841 840 839 838 836 834 832 830 829 828 826 824 822 820
801 807 812 813 809 808 805 802 794 799 801 797 796 797 800 802 808 815 822 823 824 825 826 830 834 837 839 841 841 841 841 841 841 840 839 839 837 836 835 832 829 828 826 823 821 819 819 817 815
813 813 810 815 811 806 806 805 801 801 800 799 796 797 799 802 808 817 820 820 822 824 826 830 833 836 839 840 840 840 840 839 839 837 837 836 835 834 832 830 826 824 822 820 817 815 813 811 810
814 815 816 812 815 818 814 808 806 803 799 800 800 800 803 807 814 818 820 822 824 826 828 831 834 835 837 839 839 839 838 836 837 837 836 834 833 831 828 826 824 821 818 814 812 809 806 804 803
816 817 818 817 819 819 810 809 808 808 809 807 803 804 806 809 814 819 821 823 825 828 831 834 835 835 836 837 838 838 839 837 835 834 833 831 828 827 825 823 820 817 813 810 806 804 801 797 796
819 820 825 826 818 815 813 811 811 812 809 809 810 810 811 812 816 821 824 827 829 831 833 834 835 836 838 838 839 838 837 835 833 832 830 828 826 824 821 818 814 810 807 803 801 798 795 790 788
823 824 827 825 822 812 813 812 817 813 815 815 816 816 818 819 822 825 827 831 832 834 835 836 838 839 838 838 839 837 835 833 832 829 828 825 822 819 815 812 808 804 801 797 793 790 788 787 781
827 827 826 823 817 817 813 811 816 812 819 820 821 823 824 826 828 830 833 834 836 838 839 840 841 840 839 838 836 835 835 832 829 828 825 821 818 814 810 807 804 800 797 794 790 786 784 781 777
825 826 824 822 818 828 826 823 818 820 827 824 825 827 828 829 830 833 835 836 838 840 841 841 840 840 838 837 835 835 834 831 827 825 821 817 814 810 807 803 800 796 793 790 788 787 784 782 779
817 821 826 836 832 830 833 826 826 828 827 828 828 829 831 832 832 834 836 837 839 839 839 838 837 837 836 834 834 833 828 828 826 822 818 814 809 805 802 800 798 795 792 789 788 786 784 783 783
831 829 840 851 843 834 827 826 822 826 827 830 830 832 833 834 835 836 837 837 838 839 838 837 836 834 833 832 830 828 826 824 822 819 816 812 807 802 799 799 797 794 790 789 787 787 785 784 781
832 839 842 853 876 852 828 825 825 826 827 828 831 832 833 834 834 836 836 837 837 837 836 835 833 830 829 829 827 826 824 822 820 817 813 809 805 801 800 798 796 794 793 790 788 787 786 785 784
830 838 842 842 861 857 825 824 821 828 826 831 830 832 832 832 832 834 834 835 836 835 834 832 830 829 828 827 825 824 823 821 818 815 812 808 805 801 799 797 796 793 792 790 788 787 785 783 781
838 839 843 842 850 855 855 829 820 825 828 830 830 830 831 832 833 834 834 834 833 833 832 832 830 828 827 826 825 823 821 819 816 812 809 806 803 801 798 796 795 793 791 789 787 785 782 779 776
839 841 841 853 858 856 861 843 822 824 827 831 828 828 831 833 832 832 831 832 832 832 831 829 829 829 826 824 822 821 819 817 814 812 809 806 803 800 797 796 793 791 788 786 784 782 779 776 773
Wind_Speed
1 2 3 5 5 3 10 8 7 10 6 2 1 4 8 8 6 5 9 8 9 11 10 7 9 10 9 8 7 6 6 6 5 4 4 4 3 2 3 4 6 8 10 11 9 7 5 2 6
1 3 4 3 5 11 9 9 9 7 10 9 7 4 3 7 6 11 11 9 10 11 10 8 9 9 9 8 6 4 4 4 4 4 3 3 1 3 5 7 10 10 9 9 8 7 5 6 6
3 5 4 3 3 10 11 8 13 12 6 5 4 4 2 6 7 12 10 12 11 10 9 7 8 8 8 8 6 4 2 2 2 2 2 1 1 3 5 7 8 9 8 8 8 9 9 9 9
4 6 4 4 15 7 14 13 14 9 5 2 5 8 6 4 10 7 13 11 11 10 8 8 8 7 7 6 5 4 3 3 2 2 0 1 1 3 5 6 7 7 8 9 9 9 10 9 8
4 4 7 11 15 11 9 12 8 6 6 7 2 5 7 8 7 15 13 11 11 11 8 7 8 6 4 4 3 3 2 1 1 1 0 2 3 3 4 4 4 5 6 7 8 9 9 10 8
5 4 12 13 14 10 8 7 5 3 5 6 6 9 7 5 14 13 13 12 11 11 10 8 7 6 4 3 2 2 2 3 1 1 2 2 3 3 2 3 4 5 5 6 6 7 8 8 7
2 4 13 15 14 11 10 5 7 8 9 6 7 7 4 10 14 13 13 12 10 9 8 7 6 4 2 2 1 1 1 1 1 2 3 4 3 4 4 4 5 6 7 8 9 9 8 8 7
1 4 13 14 11 12 7 7 6 6 6 6 2 6 8 13 17 14 13 11 9 8 7 6 5 5 2 1 1 0 1 1 2 3 4 5 7 6 5 5 5 6 8 9 9 9 9 9 7
2 6 8 9 9 10 8 8 4 1 7 3 4 3 6 20 17 14 11 10 10 8 7 6 4 4 2 1 0 2 3 3 4 5 6 5 3 3 4 6 7 9 10 12 12 11 10 10 9
3 5 6 4 5 11 9 5 7 6 7 6 7 6 10 21 20 17 15 15 12 11 10 8 7 4 3 2 1 1 1 1 2 3 4 5 5 5 6 7 10 10 11 12 13 12 11 8 7
2 8 10 7 8 8 9 7 5 7 8 9 10 11 17 20 18 16 14 12 12 12 11 10 7 5 4 3 1 2 3 4 4 5 6 7 8 8 8 8 9 9 12 9 11 10 9 8 9
10 6 5 7 5 6 7 5 5 7 6 4 3 11 18 17 16 14 14 12 12 11 11 8 7 5 5 3 2 3 4 5 6 7 9 8 9 10 10 11 12 12 12 12 11 11 10 9 7
13 9 8 4 5 3 2 4 2 5 4 4 6 10 14 14 14 14 14 14 13 13 11 9 7 6 5 4 3 4 4 5 6 8 9 9 10 10 11 12 13 13 12 12 12 12 12 9 7
5 7 7 3 4 3 4 3 4 6 2 6 7 11 13 13 14 15 16 14 13 11 12 10 9 8 6 4 3 2 3 4 5 6 8 9 9 10 11 12 13 12 12 12 12 12 12 11 9
7 10 6 6 3 2 4 7 4 4 2 1 6 9 12 14 16 15 15 15 13 10 9 11 11 8 5 4 2 0 2 3 4 5 7 8 9 10 11 13 13 13 13 13 13 12 12 12 11
5 4 6 7 0 2 5 7 8 4 6 8 6 5 12 16 17 14 11 11 11 11 10 11 11 7 4 4 2 2 2 2 4 6 7 9 10 12 14 15 15 15 16 17 16 16 16 15 15
2 2 1 6 3 4 3 1 6 8 8 11 9 6 11 14 16 10 11 13 12 11 12 14 11 7 5 4 3 3 3 3 5 7 8 10 12 13 15 18 19 17 18 18 19 20 19 20 18
2 3 3 1 6 6 3 3 6 9 3 3 4 4 7 11 12 9 7 6 7 6 9 11 9 4 2 3 3 4 4 3 5 6 7 10 12 13 15 18 20 20 20 22 23 23 24 24 24
1 1 2 3 4 7 3 2 8 9 9 8 6 6 8 10 8 4 1 2 4 5 7 6 6 4 2 1 4 5 7 7 6 7 11 13 13 15 17 18 19 20 21 23 24 26 27 28 27
1 2 2 2 1 5 2 5 8 10 11 10 11 11 10 10 10 11 11 11 8 9 8 6 6 6 5 4 4 4 7 7 8 10 14 14 18 18 18 18 20 21 23 23 24 24 26 28 27
2 2 4 4 4 3 4 7 6 6 10 11 12 12 12 12 12 11 13 13 11 10 8 9 11 12 11 9 7 6 6 9 10 15 16 19 21 20 19 19 19 20 21 23 24 24 26 28 28
1 2 8 7 6 4 3 4 5 4 8 9 9 10 10 10 9 9 8 9 9 11 13 13 11 10 9 10 8 9 9 10 12 13 15 20 19 20 20 20 19 19 19 21 22 23 25 26 29
5 8 5 4 6 4 2 6 8 2 7 6 8 9 10 9 9 9 10 12 13 12 11 10 8 9 8 7 9 10 11 11 12 17 20 21 21 20 20 19 18 17 16 17 17 17 17 20 24
6 3 1 1 2 4 2 5 7 2 4 7 9 9 9 8 7 9 10 10 11 10 9 7 7 8 10 10 10 10 12 15 18 21 24 23 26 24 22 19 15 11 10 10 9 7 8 8 7
8 2 2 2 4 1 1 6 7 5 7 7 6 8 8 8 7 5 5 5 6 6 6 6 8 9 12 12 9 9 12 17 20 23 25 28 26 24 21 15 11 9 6 5 4 4 4 4 5
6 6 3 2 2 4 3 2 6 7 6 6 7 6 6 7 7 5 3 4 4 5 7 7 7 9 10 8 11 13 15 18 21 23 25 26 24 20 13 9 9 9 8 8 8 7 11 10 8
3 4 1 3 1 3 1 3 7 7 6 5 5 3 4 3 3 5 6 6 6 6 6 7 9 12 14 13 13 14 16 20 20 22 21 21 18 14 11 10 9 5 5 6 6 6 8 11 11
4 3 1 2 3 4 3 7 7 9 5 2 3 3 2 1 4 7 11 9 8 10 10 11 12 13 12 12 11 13 16 16 16 17 18 17 13 11 10 6 5 5 7 9 11 12 9 8 10
3 2 2 1 2 3 4 5 5 2 3 4 8 9 6 6 8 10 14 14 13 10 9 11 11 10 10 10 13 15 15 13 14 15 14 12 12 10 8 8 9 10 13 16 11 11 13 12 11
2 1 1 2 2 2 4 6 4 1 1 4 12 7 5 7 11 12 13 11 9 7 9 10 10 11 9 12 14 15 13 13 14 14 13 12 12 10 10 11 13 17 13 15 14 15 15 14 15
Wind_Direction
313 175 194 226 206 187 130 109 112 124 129 71 57 321 45 21 4 41 121 109 124 138 137 126 134 146 162 159 158 155 148 142 146 133 120 121 102 41 21 358 351 341 330 329 343 5 6 293 287
207 164 221 238 178 148 121 128 129 99 107 108 107 124 77 70 68 108 135 139 139 142 145 136 135 137 154 166 154 145 128 112 100 98 94 105 102 346 332 335 342 343 343 359 3 359 331 322 305
172 209 241 163 136 112 119 134 120 121 138 179 124 22 73 90 114 129 126 143 139 140 136 134 126 127 130 149 159 148 128 124 119 142 175 193 228 280 303 311 310 316 329 332 347 343 331 314 304
208 198 185 169 111 91 115 129 134 142 133 166 120 100 104 36 125 121 133 134 135 131 128 140 134 141 139 146 146 157 194 212 233 224 60 26 344 341 343 338 341 338 336 340 346 346 349 343 313
223 245 144 115 103 116 111 129 153 141 126 145 205 114 102 116 114 134 140 137 134 134 127 131 147 136 140 147 159 161 172 183 206 129 140 1 353 350 350 353 356 357 357 358 354 354 355 358 357
188 244 142 125 115 120 120 140 165 149 145 116 124 123 102 121 142 143 144 142 142 143 144 145 145 145 149 145 147 145 163 178 164 22 1 353 354 356 14 19 12 7 358 352 351 349 351 360 9
185 138 112 123 133 145 138 151 170 141 140 129 126 125 106 153 146 145 148 146 147 150 144 142 139 139 119 125 126 109 248 316 350 356 357 356 354 355 4 13 359 354 352 347 347 346 344 342 344
106 114 135 131 152 131 132 172 159 183 129 121 211 141 166 158 158 152 152 156 158 154 165 154 140 142 167 177 359 318 278 326 344 354 348 347 356 358 1 14 333 340 336 339 343 344 339 338 336
243 156 137 142 159 140 154 161 143 72 150 187 163 58 100 151 155 154 153 166 176 180 186 175 183 160 182 149 207 23 357 359 3 356 342 354 330 345 356 323 337 336 337 338 340 341 342 345 341
279 157 102 97 114 140 157 186 146 178 166 180 163 131 154 156 165 169 174 177 183 189 199 192 193 186 204 215 204 306 332 341 326 330 330 337 330 317 318 312 325 325 326 330 332 332 338 351 316
74 112 130 128 129 151 156 174 181 193 186 155 173 158 163 168 177 182 184 176 184 189 194 201 198 206 225 244 260 295 322 329 320 319 327 323 331 326 325 319 321 321 319 326 323 321 321 317 311
116 101 142 137 148 181 182 142 202 228 101 67 146 158 166 179 181 187 183 187 186 194 201 200 205 217 236 256 291 309 306 312 319 324 322 318 318 317 320 319 320 319 318 316 316 313 312 313 304
114 123 103 115 150 91 128 177 271 229 216 170 172 178 175 180 179 185 190 188 188 206 209 209 207 217 240 258 274 294 301 316 316 317 313 310 310 311 314 313 314 313 313 311 309 308 306 304 301
112 120 110 129 145 95 248 157 248 93 72 174 191 191 190 186 185 182 193 201 210 218 218 211 207 208 220 224 251 294 337 335 329 325 321 315 310 309 312 310 309 306 305 300 295 296 291 289 287
145 139 128 77 148 97 292 207 164 50 283 172 212 206 203 195 192 190 188 204 215 225 217 202 198 197 204 215 219 289 328 324 326 329 322 309 304 306 304 307 307 306 304 296 290 284 279 274 272
167 189 208 66 98 41 287 134 116 360 309 239 207 216 208 203 200 194 203 220 231 236 216 197 191 189 191 203 208 248 300 309 323 322 313 309 306 301 301 301 300 301 300 298 294 288 281 275 275
160 128 115 152 55 317 320 268 31 339 295 246 241 232 209 207 197 200 220 228 237 238 212 193 184 187 198 217 243 265 282 308 319 318 321 318 311 302 295 291 289 289 287 284 281 279 275 275 269
136 192 186 321 38 334 314 320 2 4 328 227 253 236 202 196 185 189 217 225 221 202 184 179 174 172 209 255 291 290 297 311 313 321 326 328 321 315 304 297 293 291 286 283 280 275 273 267 270
66 259 307 53 75 318 360 59 44 45 62 87 78 107 131 139 155 164 169 168 145 133 151 169 144 79 92 334 323 301 296 306 330 345 349 345 335 330 320 307 299 295 289 285 281 275 270 267 262
293 288 72 110 35 295 29 87 79 56 59 58 81 93 113 121 109 90 84 86 86 94 96 105 91 65 50 19 3 352 342 355 350 344 335 336 336 329 316 305 300 297 293 288 282 280 277 269 261
61 0 16 314 304 213 230 111 105 73 78 86 81 84 77 81 87 76 73 68 75 78 78 79 77 74 64 55 31 2 341 335 332 333 333 330 328 323 316 308 300 296 293 290 287 282 279 276 270
236 13 306 274 251 213 257 162 86 97 98 83 77 73 72 72 72 64 64 60 68 72 84 83 78 66 48 38 22 16 360 342 336 331 321 318 316 313 311 308 305 300 296 292 291 288 283 279 276
27 317 307 269 233 239 138 260 103 129 95 71 76 72 71 63 60 69 74 80 81 81 75 63 51 42 31 16 16 358 347 340 332 321 320 318 318 316 313 311 308 305 304 302 301 298 288 278 274
323 259 181 163 193 225 68 320 124 50 28 88 82 63 49 44 67 81 91 93 87 75 59 42 20 13 15 9 10 360 342 332 332 327 326 325 323 319 316 310 307 310 319 323 326 339 359 353 346
349 252 221 210 205 27 148 275 53 103 90 73 62 53 54 60 69 88 93 83 70 54 32 19 11 358 1 5 343 323 331 331 328 330 328 324 320 319 317 315 312 311 327 343 343 336 336 38 18
19 3 29 318 322 315 185 224 132 129 100 75 75 80 79 72 69 65 36 360 8 1 356 347 339 335 322 323 333 334 331 330 327 326 322 318 316 314 309 304 303 304 302 296 299 348 357 339 324
39 57 26 122 163 255 295 153 177 167 117 68 75 77 72 65 43 15 347 324 305 302 307 318 329 331 327 330 328 330 329 327 323 320 317 314 312 310 303 302 304 325 352 357 343 354 2 353 342
33 120 226 32 341 303 303 290 303 189 225 39 18 317 232 302 340 342 333 335 306 292 299 318 327 327 321 323 326 323 320 316 317 321 322 320 315 311 305 315 310 321 327 331 328 314 309 287 289
171 157 72 75 296 279 302 311 75 173 287 309 333 318 277 307 322 328 328 324 318 306 304 320 324 319 321 325 322 320 321 324 326 326 325 323 314 311 301 304 307 316 328 321 299 285 274 279 289
314 143 107 294 199 223 322 279 88 159 61 295 320 337 290 301 312 324 323 328 320 318 322 331 335 329 331 329 326 325 324 324 326 325 323 318 318 310 314 318 319 309 300 304 299 291 285 282 290